Tracking 30922 objects as of 2-Jul-2025
HD Live streaming from Space Station
objects crossing your sky now

BREEZE-M DEB (TANK)

Track BREEZE-M DEB (TANK) now!
10-day predictions


NORAD ID: 44309
Int'l Code: 2019-031C
Perigee: 316.9 km
Apogee: 17,041.6 km
Inclination: 49.4 °
Period: 306.2 minutes
Semi major axis: 15050 km
RCS: Unknown
Launch date: May 30, 2019
Source: Commonwealth of Independent States (former USSR) (CIS)
Launch site: TYURATAM MISSILE AND SPACE COMPLEX (TTMTR)

Note: This is SATELLITE DEBRIS
Your satellite tracking list
Your tracking list is empty




NASA's NSSDC Master Catalog

Two Line Element Set (TLE):
1 44309U 19031C   25182.62151946  .00002397  00000-0  58756-3 0  9991
2 44309  49.4191 162.8566 5556284 143.4538 272.0152  4.70205205101609
Source of the keplerian elements: AFSPC